Weather History for Bismarck, ND

Change the Weather History Date:

Monday, January 7, 2013

  Actual Average Record
Temperature  
Mean Temperature 20 °F 12 °F  
Max Temperature 36 °F 23 °F 56 °F (1914)
Min Temperature 3 °F 2 °F -40 °F (1887)
Degree Days  
Heating Degree Days 45 53  
Month to date heating degree days 339 366  
Since 1 July heating degree days 3868 3866  
Cooling Degree Days 0 0  
Month to date cooling degree days 0 0  
Year to date cooling degree days 0 0  
Moisture  
Dew Point 16 °F    
Average Humidity 74    
Maximum Humidity 92    
Minimum Humidity 56    
Precipitation  
Precipitation 0.00 in 0.01 in 0.22 in (1875)
Month to date precipitation 0.04 0.11  
Year to date precipitation 0.04 0.11  
Snow  
Snow 0.00 in 0.40 in 4.20 in (1977)
Month to date snowfall 0.4 2.3  
Since 1 July snowfall 22.6 22.8  
Snow Depth 6.00 in    
Sea Level Pressure  
Sea Level Pressure 29.90 in    
Wind  
Wind Speed 8 mph (WSW)    
Max Wind Speed 16 mph    
Max Gust Speed 22 mph    
Visibility 10 miles    
Events      
T = Trace of Precipitation, MM = Missing Value Source: NWS Daily Summary

Daily Weather History Graph

Daily Weather History Graph

Search for Another Location

Airport:

Trip Planner

Search our weather history database for the weather conditions in past years. The results will help you decide how hot, cold, wet, or windy it might be!

Date:

Astronomy

Jan. 07, 2013 Rise Set
Actual Time 8:27 AM CST 5:12 PM CST
Civil Twilight 7:52 AM CST 5:46 PM CST
Nautical Twilight 7:14 AM CST 6:25 PM CST
Astronomical Twilight 6:37 AM CST 7:01 PM CST
Moon 3:48 AM CST (1/7) 1:27 PM CST (1/7)
Length of Visible Light 9h 54m
Length of Day
8h 45m
Waning Crescent, 22% of the Moon is Illuminated
Jan 7
Waning Crescent
Jan 11
New
Jan 18
First Quarter
Jan 26
Full
Feb 3
Last Quarter

Hourly Weather History & Observations

Time (CST) Temp. Windchill Dew Point Humidity Pressure Visibility Wind Dir Wind Speed Gust Speed Precip Events Conditions
12:52 AM 30.9 °F 27.5 °F 19.9 °F 64% 29.84 in 10.0 mi South 3.5 mph - N/A   Clear
1:52 AM 32.0 °F 22.1 °F 21.2 °F 64% 29.77 in 10.0 mi West 13.8 mph - N/A   Partly Cloudy
2:52 AM 28.9 °F 19.8 °F 19.0 °F 67% 29.87 in 10.0 mi West 10.4 mph - N/A   Clear
3:52 AM 30.0 °F 20.5 °F 19.0 °F 64% 29.87 in 10.0 mi West 11.5 mph - N/A   Clear
4:52 AM 25.0 °F 15.5 °F 17.1 °F 72% 29.88 in 10.0 mi West 9.2 mph - N/A   Clear
5:52 AM 28.0 °F 18.1 °F 18.0 °F 66% 29.88 in 10.0 mi West 11.5 mph - N/A   Clear
6:52 AM 28.0 °F 18.6 °F 18.0 °F 66% 29.89 in 10.0 mi WNW 10.4 mph - N/A   Clear
7:52 AM 25.0 °F 17.1 °F 17.1 °F 72% 29.91 in 10.0 mi WNW 6.9 mph - N/A   Clear
8:52 AM 24.1 °F 16.0 °F 15.1 °F 69% 29.93 in 10.0 mi SW 6.9 mph - N/A   Clear
9:52 AM 28.9 °F 23.9 °F 17.1 °F 61% 29.93 in 10.0 mi WNW 4.6 mph - N/A   Clear
10:52 AM 32.0 °F 24.2 °F 19.0 °F 59% 29.95 in 10.0 mi WSW 9.2 mph - N/A   Clear
11:52 AM 33.1 °F 25.5 °F 19.9 °F 59% 29.94 in 10.0 mi West 9.2 mph 19.6 mph N/A   Mostly Cloudy
12:52 PM 33.1 °F 24.9 °F 21.0 °F 61% 29.91 in 10.0 mi WNW 10.4 mph - N/A   Scattered Clouds
1:52 PM 35.1 °F 27.9 °F 21.0 °F 57% 29.90 in 10.0 mi WNW 9.2 mph - N/A   Clear
2:52 PM 36.0 °F 26.7 °F 21.0 °F 55% 29.91 in 10.0 mi West 15.0 mph - N/A   Clear
3:52 PM 34.0 °F 25.0 °F 21.9 °F 61% 29.91 in 10.0 mi West 12.7 mph - N/A   Clear
4:52 PM 32.0 °F 26.4 °F 21.0 °F 64% 29.92 in 10.0 mi SW 5.8 mph - N/A   Clear
5:52 PM 26.1 °F 18.4 °F 19.0 °F 75% 29.93 in 10.0 mi SW 6.9 mph - N/A   Clear
6:52 PM 25.0 °F 18.1 °F 19.0 °F 78% 29.93 in 10.0 mi SW 5.8 mph - N/A   Clear
7:52 PM 14.0 °F 8.2 °F 10.9 °F 88% 29.94 in 10.0 mi SE 3.5 mph - N/A   Clear
8:52 PM 7.0 °F -1.7 °F 5.0 °F 92% 29.94 in 9.0 mi SE 4.6 mph - N/A   Clear
9:52 PM 10.0 °F 3.6 °F 8.1 °F 92% 29.91 in 10.0 mi East 3.5 mph - N/A   Clear
10:52 PM 6.1 °F -4.3 °F 3.9 °F 91% 29.90 in 10.0 mi East 5.8 mph - N/A   Clear
11:52 PM 8.1 °F -2.0 °F 6.1 °F 92% 29.87 in 10.0 mi ESE 5.8 mph - N/A   Clear